Miscellaneous Local Product
Issued by NWS Hastings, NE

Home | Current Version | Previous Version | Graphics & Text | Print | Product List | Glossary On
Versions: 1 2 3 4 5 6 7 8 9 10 11 12 13 14 15 16 17 18 19 20 21 22 23 24 25 26 27 28 29 30 31 32 33 34 35 36 37 38 39 40 41 42 43 44 45 46 47 48 49 50
922
AXUS43 KGID 281602
MISGRI

GID CWA HOURLY WEATHER ROUNDUP
NATIONAL WEATHER SERVICE HASTINGS NE
1100 AM CDT THU JUL 28 2016

NOTE: "FAIR" INDICATES FEW OR NO CLOUDS BELOW 12,000 FEET WITH NO
SIGNIFICANT WEATHER AND/OR OBSTRUCTIONS TO VISIBILITY.

...SOUTH CENTRAL NEBRASKA...

CITY           SKY/WX    TMP DP  RH WIND       PRES   REMARKS
GRAND ISLAND   SUNNY     77  65  66 NE6       30.08F
HASTINGS       SUNNY     76  67  73 NE8       30.09S
ORD            CLOUDY    74  64  71 VRB3      30.09F
YORK           MOSUNNY   77  68  73 NE9       30.07F
AURORA         MOSUNNY   77  69  75 N5        30.08S
LEXINGTON      PTSUNNY   70  64  81 NW7       30.14S
HOLDREGE       MOSUNNY   74  65  74 N6        30.10R
HEBRON         MOSUNNY   79  66  65 NE5       30.05R

...NEBRASKA PANHANDLE...

CITY           SKY/WX    TMP DP  RH WIND       PRES   REMARKS
CHADRON        LGT RAIN  62  58  86 W16G24    30.23R
ALLIANCE       TSTM      58  56  93 S9        30.19R
SCOTTSBLUFF    CLOUDY    61  32  33 NE10      30.22R THUNDER
SIDNEY         CLOUDY    65  61  87 E15       30.18S

...WESTERN AND NORTH CENTRAL NEBRASKA...

CITY           SKY/WX    TMP DP  RH WIND       PRES   REMARKS
VALENTINE      CLOUDY    67  62  84 SE9       30.13R
AINSWORTH      PTSUNNY   66  65  94 SE8       30.12F
ONEILL         MOSUNNY   73  62  68 E3        30.10F
BROKEN BOW     CLOUDY    69  65  86 NW3       30.13F
IMPERIAL       CLOUDY    68  63  84 NE13      30.14R
NORTH PLATTE   LGT RAIN  63  59  87 E14G41    30.08F FOG
MCCOOK         PTSUNNY   75  62  64 NE10      30.09F

...EASTERN NEBRASKA...

CITY           SKY/WX    TMP DP  RH WIND       PRES   REMARKS
NORFOLK        CLOUDY    75  61  61 NW6       30.08S
SO SIOUX CITY  SUNNY     78  59  51 VRB6      30.04F
TEKAMAH        MOSUNNY   79  66  64 N9        30.03F
COLUMBUS       MOSUNNY   75  63  64 CALM      30.07F
ALBION         CLOUDY    74  63  68 CALM      30.10S
OMAHA EPPLEY   MOSUNNY   79  68  69 N10       30.02F
OFFUTT AFB     SUNNY     79  65  61 N10       30.02
MILLARD        SUNNY     78  65  64 N3        30.02F
LINCOLN        SUNNY     80  67  64 N7        30.05S
NEBRASKA CITY  SUNNY     78  68  71 NE9       30.02S
BEATRICE       MOSUNNY   79  69  70 N7        30.03S
FALLS CITY     SUNNY     82  71  69 NE7       29.99F

...NORTHERN KANSAS...

CITY           SKY/WX    TMP DP  RH WIND       PRES   REMARKS
GOODLAND       TSTM      64  61  90 NE26G39   30.13R FOG
HILL CITY      SUNNY     80  66  62 E9        30.04F
NORTON         SUNNY     79  59  50 NE10G17   30.07S
SMITH CENTER   MOSUNNY   82  64  54 E10       30.04F
BELOIT         SUNNY     81  66  61 N5        30.02S
HAYS           SUNNY     82  63  51 NE10      30.02F
RUSSELL        SUNNY     82  68  62 NE8       30.01F
CONCORDIA      SUNNY     82  68  62 N6        30.03F
SALINA         CLOUDY    86  69  56 NE7       30.00F HX  90
TOPEKA           N/A     83  71  67 NE9       29.98F



USA.gov is the U.S. government's official web portal to all federal, state and local government web resources and services.